[[{"header":{"parameterUnit":"m.s-1","parameterCategory":2,"la1":30.2991,"la2":30.254,"lo1":-89.0895,"lo2":-89.0444,"dy":0.0017,"dx":0.0017,"nx":28,"ny":28,"refTime":"2024-04-05T09:00:00:Z","depth":"0","parameterNumber":2,"parameterNumberName":"U-component_of_CURRENTS"},"data":[0,0,0,0,0,0,0,0,0,0,0,0,0,0,0,0,0,0,0,0,0,0,0,0,0,0,0,0,0,0,0,0,0,0,0,0,0,0,0,0,0,0,0,0,0,0,0,0,0,0,0,0,0,0,0,0,0,0,0.2851,0.2852,0,0.2901,0.2901,0.2901,0.2908,0.2908,0.2908,0.2908,0.288,0.2879,0.2878,0,0,0,0,0,0,0,0,0,0,0,0,0,0.2819,0.2819,0.2851,0.2852,0.2853,0.2901,0.2901,0.2901,0.2908,0.2908,0.2908,0.2908,0.288,0.2879,0.2878,0,0,0,0,0,0,0,0,0,0,0,0,0,0.2843,0.2819,0.2851,0.2866,0.2868,0.2901,0.2901,0.2901,0.2908,0.2908,0.2908,0.2908,0.288,0.2879,0.2878,0.2874,0,0,0.2875,0.2875,0,0,0,0,0,0,0,0,0.2841,0.2843,0.2862,0.2865,0.2867,0.2902,0.288,0.289,0.2908,0.2888,0.2908,0.2908,0.2883,0.2882,0.2886,0.2872,0.2871,0.2875,0.2874,0.2874,0.2874,0,0,0,0,0,0,0,0.284,0.2842,0.2866,0.2864,0.2866,0.2889,0.2892,0.2882,0.2881,0.289,0.2892,0.2904,0.2883,0.2887,0.2885,0.2871,0.2875,0.2874,0.2873,0.2873,0.285,0.285,0,0,0,0,0,0,0.2839,0.284,0.2865,0.2868,0.2859,0.289,0.2892,0.2887,0.2883,0.2884,0.2904,0.2904,0.2889,0.2887,0.2884,0.2875,0.2874,0.2873,0.2872,0.285,0.285,0.285,0,0,0,0,0,0,0.2838,0.284,0.2863,0.286,0.2865,0.2891,0.2885,0.2889,0.2898,0.2895,0.2894,0.2912,0.2889,0.2886,0.2875,0.2874,0.2872,0.2871,0.285,0.285,0.285,0.2858,0,0,0,0,0,0,0.2836,0.2839,0.2834,0.2859,0.2865,0.2883,0.2886,0.289,0.2908,0.2909,0.2901,0.2898,0.2889,0.2877,0.2874,0.2872,0.2871,0.285,0.285,0.285,0.2857,0.2858,0.2858,0,0,0,0,0,0.2835,0.2827,0.2832,0.2836,0.2856,0.2884,0.2888,0.2904,0.2908,0.2912,0.2905,0.2898,0.2875,0.2876,0.2873,0.287,0.285,0.285,0.285,0.2857,0.2858,0.2858,0,0,0,0,0,0,0.2794,0.2828,0.2834,0.2832,0.2858,0.2886,0.2895,0.2908,0.2908,0.2904,0.2897,0.2894,0.2892,0.2877,0.2878,0.2864,0.2862,0.2861,0.2869,0.2869,0.287,0.2865,0.287,0,0,0,0,0,0.2787,0.2798,0.2829,0.2827,0.2842,0.2869,0.2883,0.2895,0.2904,0.2905,0.2897,0.2889,0.2889,0.2876,0.2875,0.2858,0.2839,0.2855,0.2855,0.2856,0.2851,0.2824,0.2822,0.285,0.285,0.285,0,0,0.277,0.2792,0.2795,0.2821,0.2842,0.286,0.2876,0.2897,0.2901,0.2899,0.2891,0.2897,0.289,0.2881,0.2876,0.2864,0.2838,0.2856,0.2856,0.2851,0.2824,0.2821,0.2819,0.285,0.285,0.285,0,0,0.2751,0.2762,0.2771,0.2796,0.2834,0.2853,0.2861,0.2889,0.2891,0.289,0.2896,0.2896,0.2883,0.2879,0.2875,0.2875,0.2854,0.2877,0.2859,0.2834,0.2831,0.2828,0.2798,0.2793,0.2861,0.2862,0.2862,0,0.2731,0.2735,0.2776,0.2795,0.2809,0.285,0.2856,0.2872,0.2887,0.2877,0.2885,0.2874,0.2881,0.2865,0.2877,0.2875,0.2855,0.2858,0.2834,0.2831,0.2828,0.2797,0.2791,0.2862,0.2862,0.2862,0.2862,0,0.2729,0.2728,0.2737,0.2772,0.2796,0.2806,0.2842,0.2848,0.2857,0.2862,0.2851,0.2858,0.2842,0.2856,0.2872,0.2856,0.2847,0.285,0.2831,0.2825,0.2794,0.2787,0.2862,0.2862,0.2862,0.2862,0,0,0.2674,0.2723,0.272,0.2722,0.2778,0.2789,0.2807,0.2817,0.2798,0.2819,0.2785,0.2817,0.2817,0.2814,0.2827,0.2818,0.2801,0.2829,0.2827,0.2796,0.2736,0.2708,0.2698,0.2798,0.2797,0.2796,0.2721,0,0.2648,0.2666,0.2698,0.2694,0.2704,0.2744,0.2743,0.2761,0.2768,0.2746,0.2764,0.2749,0.2799,0.2789,0.279,0.2809,0.2784,0.282,0.2748,0.2746,0.272,0.269,0.2613,0.2537,0.2714,0.2713,0.2712,0,0.2623,0.2638,0.2638,0.2638,0.2641,0.2645,0.2641,0.2648,0.2652,0.2652,0.2654,0.2667,0.268,0.2712,0.2715,0.2735,0.2733,0.2742,0.2738,0.2704,0.2705,0.2572,0.2519,0.2482,0.2702,0.2703,0.2704,0,0.2565,0.2577,0.2568,0.2578,0.2603,0.2591,0.2599,0.2611,0.2599,0.2598,0.2589,0.2591,0.2601,0.2603,0.2663,0.2674,0.2657,0.266,0.262,0.2618,0.2532,0.2524,0.2431,0.2627,0.2627,0.2628,0.2628,0,0.2522,0.2505,0.2534,0.2533,0.2493,0.2535,0.2488,0.2503,0.2502,0.2489,0.2535,0.2532,0.258,0.2593,0.262,0.2611,0.2614,0.2605,0.2592,0.2533,0.2526,0.2477,0.2476,0.2625,0.2625,0.2626,0.2626,0,0.2469,0.2487,0.2471,0.248,0.247,0.2451,0.244,0.2404,0.2433,0.2422,0.2427,0.2484,0.2515,0.2549,0.2561,0.2556,0.2476,0.2537,0.2471,0.2451,0.2358,0.2361,0.2148,0.209,0.2442,0.244,0.2439,0,0.2448,0.2438,0.2432,0.2405,0.2404,0.2378,0.2347,0.2367,0.2355,0.2403,0.2397,0.2435,0.2469,0.2475,0.2469,0.2451,0.2422,0.2354,0.2357,0.2327,0.232,0.2238,0.2199,0.2242,0.224,0.2238,0.2236,0,0.2407,0.2404,0.2395,0.234,0.2301,0.2264,0.2244,0.2231,0.2269,0.2277,0.2319,0.2353,0.239,0.2355,0.2346,0.2336,0.2245,0.2309,0.2283,0.2154,0.2049,0.1997,0.2327,0.2218,0.2219,0.2221,0.2222,0.2223,0.2371,0.2346,0.2318,0.2242,0.2204,0.2152,0.21,0.2111,0.2097,0.2113,0.2214,0.2231,0.2259,0.2242,0.221,0.211,0.2108,0.2052,0.2055,0.1973,0.1912,0.2205,0.2088,0.2089,0.209,0.209,0.2091,0,0.23,0.2265,0.2208,0.2121,0.2035,0.2049,0.2012,0.1963,0.1934,0.2003,0.2034,0.2052,0.2021,0.2023,0.196,0.1883,0.179,0.1833,0.1708,0.1685,0.1946,0.1939,0.1776,0.1776,0.1776,0.1776,0.1776,0.1776,0.2265,0.2177,0.2124,0.1954,0.1896,0.1786,0.1754,0.173,0.1752,0.1741,0.1747,0.1799,0.1882,0.186,0.1776,0.1728,0.1619,0.1519,0.153,0.1755,0.1776,0.1796,0.1788,0.1596,0.1596,0.1192,0.1189,0.1187]},{"header":{"parameterUnit":"m.s-1","parameterCategory":2,"la1":30.2991,"la2":30.254,"lo1":-89.0895,"lo2":-89.0444,"dy":0.0017,"dx":0.0017,"nx":28,"ny":28,"refTime":"2024-04-05T09:00:00:Z","depth":"0","parameterNumber":3,"parameterNumberName":"V-component_of_CURRENTS"},"data":[0,0,0,0,0,0,0,0,0,0,0,0,0,0,0,0,0,0,0,0,0,0,0,0,0,0,0,0,0,0,0,0,0,0,0,0,0,0,0,0,0,0,0,0,0,0,0,0,0,0,0,0,0,0,0,0,0,0,0.0048,0.0047,0,0.0007,0.0007,0.0006,-0.003,-0.003,-0.003,-0.0031,-0.0103,-0.0105,-0.0106,0,0,0,0,0,0,0,0,0,0,0,0,0,0.007,0.007,0.0048,0.0047,0.0047,0.0007,0.0007,0.0006,-0.003,-0.003,-0.003,-0.0031,-0.0103,-0.0105,-0.0106,0,0,0,0,0,0,0,0,0,0,0,0,0,0.0048,0.007,0.0048,0.0025,0.0022,0.0007,0.0007,0.0006,-0.0029,-0.003,-0.0031,-0.0031,-0.0102,-0.0104,-0.0107,-0.011,0,0,-0.0114,-0.0115,0,0,0,0,0,0,0,0,0.0049,0.0047,0.0028,0.0026,0.0023,-0.0006,-0.0012,-0.0034,-0.0029,-0.001,-0.0031,-0.0031,-0.0073,-0.0078,-0.0084,-0.0113,-0.0116,-0.0114,-0.0116,-0.0117,-0.0117,0,0,0,0,0,0,0,0.0051,0.0049,0.0031,0.0028,0.0025,0.0008,0.0004,-0.0016,-0.0039,-0.0012,-0.0015,-0.0018,-0.0075,-0.0082,-0.0086,-0.0117,-0.0114,-0.0116,-0.0118,-0.0118,-0.0151,-0.0151,0,0,0,0,0,0,0.0059,0.005,0.0033,0.003,0.0036,0.0008,0.0004,0.0003,-0.0038,-0.0045,-0.0018,-0.002,-0.0078,-0.0084,-0.0089,-0.0082,-0.0116,-0.0119,-0.012,-0.0152,-0.0151,-0.015,0,0,0,0,0,0,0.0059,0.0058,0.0034,0.0039,0.0035,0.0009,0.0008,0.0003,-0.0004,-0.0042,-0.0049,-0.0019,-0.0078,-0.0086,-0.01,-0.0086,-0.012,-0.0122,-0.0152,-0.0151,-0.0151,-0.0077,0,0,0,0,0,0,0.006,0.0058,0.0061,0.004,0.0035,0.0039,0.0008,0.0003,-0.0005,-0.0008,-0.0046,-0.0053,-0.0079,-0.0096,-0.0102,-0.009,-0.0124,-0.0153,-0.0152,-0.0151,-0.008,-0.0074,-0.0068,0,0,0,0,0,0.0061,0.0071,0.0061,0.0059,0.004,0.004,0.0037,0.0015,-0.0004,0.0004,-0.0025,-0.0052,-0.0094,-0.0097,-0.0105,-0.0093,-0.0153,-0.0152,-0.0151,-0.0083,-0.0075,-0.0068,0,0,0,0,0,0,0.0083,0.0067,0.0057,0.0061,0.0057,0.0035,0.0039,0.002,0.0003,-0.0004,-0.0044,-0.0052,-0.0061,-0.0086,-0.0089,-0.01,-0.0129,-0.0129,-0.0074,-0.0067,-0.0061,-0.0039,-0.0126,0,0,0,0,0,0.009,0.0092,0.0077,0.0083,0.0084,0.0062,0.0057,0.0043,0.0024,0.0016,-0.001,-0.004,-0.0061,-0.0071,-0.0094,-0.0097,-0.0121,-0.0095,-0.0089,-0.0084,-0.0071,-0.0092,-0.0086,-0.0146,-0.0146,-0.0146,0,0,0.0099,0.0091,0.0092,0.0088,0.0082,0.0096,0.0058,0.0059,0.0066,0.0011,0.0013,-0.002,-0.0058,-0.0062,-0.0068,-0.0081,-0.0081,-0.0083,-0.0078,-0.0068,-0.009,-0.0084,-0.0079,-0.0145,-0.0146,-0.0146,0,0,0.013,0.0116,0.0134,0.0136,0.0132,0.012,0.0124,0.0107,0.0097,0.0094,0.0053,0.0034,0.0003,-0.0017,-0.0034,-0.0008,-0.005,-0.0021,0.0029,0.0009,0.0014,0.0018,-0.0006,-0.0005,-0.0016,-0.0016,-0.0016,0,0.0141,0.0162,0.0142,0.0164,0.0169,0.0137,0.0163,0.0152,0.0131,0.0128,0.0106,0.0062,0.0028,0.0022,0.0029,0.0007,-0.0015,0.0006,0.0018,0.0022,0.0025,-0.0002,-0.0001,-0.0012,-0.0013,-0.0013,-0.0014,0,0.0191,0.0208,0.0222,0.0238,0.0242,0.0258,0.0243,0.0243,0.0221,0.0205,0.0192,0.0146,0.0122,0.0105,0.0075,0.0079,0.0052,0.0027,0.0004,0.0035,0.0005,0.0005,-0.0007,-0.0008,-0.001,-0.001,0,0,0.0213,0.025,0.0254,0.0277,0.028,0.0291,0.0305,0.0311,0.032,0.0292,0.0299,0.0259,0.0226,0.0206,0.016,0.0143,0.0139,0.01,0.0098,0.0083,0.0092,0.0084,0.0081,0.0115,0.0115,0.0115,0.0062,0,0.0259,0.0319,0.032,0.0373,0.0402,0.0382,0.0401,0.0396,0.0379,0.0378,0.0328,0.0315,0.0266,0.025,0.0228,0.0159,0.0141,0.0156,0.0058,0.0055,0.0049,0.0082,0.0102,0.0058,0.0061,0.0061,0.0061,0,0.0305,0.0341,0.0405,0.0443,0.0454,0.0478,0.0496,0.0506,0.0492,0.0477,0.0454,0.0407,0.0375,0.0325,0.0244,0.0254,0.0187,0.0133,0.0129,0.0098,0.0046,0.0026,0.0056,-0.0019,0.0059,0.006,0.006,0,0.0331,0.0393,0.0447,0.0462,0.0503,0.0525,0.054,0.0539,0.0552,0.0538,0.054,0.0488,0.0459,0.038,0.0269,0.0255,0.0175,0.0137,0.0068,0.0065,0.0053,0.005,0.0007,0.0089,0.0089,0.0089,0.0089,0,0.0371,0.0412,0.0469,0.0499,0.0561,0.0568,0.0617,0.062,0.0627,0.0655,0.0593,0.0597,0.0471,0.0404,0.03,0.019,0.0199,0.0089,0.0059,0.0079,0.0078,-0.0013,-0.0061,0.0087,0.0087,0.0088,0.0088,0,0.0386,0.0424,0.049,0.0554,0.0577,0.0618,0.0669,0.0698,0.0701,0.0733,0.0731,0.0675,0.0594,0.0464,0.0329,0.0234,0.0081,0.008,0.0112,0.0087,-0.0048,-0.0092,-0.0171,-0.0207,-0.0002,-0.0002,-0.0002,0,0.0398,0.0437,0.0527,0.0571,0.0604,0.0665,0.0705,0.0731,0.0767,0.0788,0.0808,0.074,0.0711,0.0512,0.033,0.0157,0.0068,0.0056,0.0036,-0.0036,-0.0109,-0.0141,-0.0168,0.0041,0.0041,0.0041,0.0041,0,0.0422,0.0455,0.0514,0.0602,0.0663,0.0732,0.0796,0.0842,0.0878,0.0915,0.0949,0.0928,0.0742,0.0582,0.0341,0.0212,0.0015,0.005,-0.0031,-0.0074,-0.0105,-0.016,0.0049,0.0041,0.0041,0.0041,0.0041,0.0041,0.0437,0.0482,0.0559,0.0639,0.0709,0.0794,0.086,0.0935,0.1015,0.1091,0.1061,0.1067,0.0829,0.0506,0.0322,0.0017,0.0003,-0.0073,-0.0122,-0.0148,-0.0173,0.004,0.0002,0.0002,0.0002,0.0002,0.0001,0,0.0463,0.0516,0.0586,0.0689,0.076,0.0796,0.0916,0.0993,0.1109,0.1182,0.1222,0.1126,0.0838,0.0532,0.0119,-0.01,-0.0183,-0.0224,-0.0263,-0.0284,-0.0098,-0.0086,-0.0135,-0.0135,-0.0135,-0.0135,-0.0135,-0.0135,0.048,0.0552,0.0589,0.0708,0.0778,0.0891,0.0968,0.1095,0.1188,0.1301,0.1327,0.1321,0.1101,0.0364,-0.0128,-0.0254,-0.039,-0.0432,-0.0508,-0.038,-0.0369,-0.0359,-0.0358,-0.0464,-0.0465,-0.0657,-0.0659,-0.066]}],[{"header":{"parameterUnit":"m.s-1","parameterCategory":2,"la1":30.2991,"la2":30.254,"lo1":-89.0895,"lo2":-89.0444,"dy":0.0017,"dx":0.0017,"nx":28,"ny":28,"refTime":"2024-04-05T09:00:00:Z","depth":"2","parameterNumber":2,"parameterNumberName":"U-component_of_CURRENTS"},"data":[0,0,0,0,0,0,0,0,0,0,0,0,0,0,0,0,0,0,0,0,0,0,0,0,0,0,0,0,0,0,0,0,0,0,0,0,0,0,0,0,0,0,0,0,0,0,0,0,0,0,0,0,0,0,0,0,0,0,0.2133,0.2134,0,0.2154,0.2154,0.2154,0.2119,0.2118,0.2118,0.2117,0.2158,0.216,0.2161,0,0,0,0,0,0,0,0,0,0,0,0,0,0.2109,0.2108,0.2133,0.2134,0.2135,0.2155,0.2154,0.2153,0.2119,0.2118,0.2118,0.2117,0.2158,0.2159,0.2161,0,0,0,0,0,0,0,0,0,0,0,0,0,0.2115,0.2108,0.2133,0.2127,0.2127,0.2155,0.2154,0.2153,0.2119,0.2118,0.2118,0.2117,0.2157,0.2159,0.2161,0.2187,0,0,0.2168,0.2169,0,0,0,0,0,0,0,0,0.2115,0.2115,0.2127,0.2127,0.2128,0.2141,0.2161,0.2168,0.2119,0.2113,0.2117,0.2117,0.2161,0.2162,0.2155,0.2188,0.219,0.2168,0.217,0.2171,0.2171,0,0,0,0,0,0,0,0.2114,0.2114,0.2133,0.2128,0.2129,0.214,0.2138,0.2162,0.2133,0.2113,0.2113,0.2129,0.216,0.2153,0.2156,0.2191,0.2168,0.217,0.2171,0.2172,0.2234,0.2234,0,0,0,0,0,0,0.2128,0.2114,0.2132,0.2134,0.213,0.2141,0.2139,0.213,0.2132,0.2135,0.213,0.2128,0.2149,0.2153,0.2157,0.2195,0.217,0.2173,0.2174,0.2234,0.2234,0.2234,0,0,0,0,0,0,0.2126,0.2128,0.2131,0.2133,0.2135,0.2143,0.2132,0.2131,0.2145,0.2147,0.2147,0.2149,0.2149,0.2154,0.2179,0.2196,0.2174,0.2175,0.2233,0.2234,0.2234,0.2266,0,0,0,0,0,0,0.2125,0.2126,0.2127,0.2133,0.2136,0.2153,0.2134,0.2132,0.2159,0.2157,0.2163,0.2164,0.2149,0.2175,0.2181,0.2199,0.2177,0.2233,0.2234,0.2234,0.2265,0.2268,0.227,0,0,0,0,0,0.2124,0.212,0.2126,0.2129,0.2134,0.2155,0.2156,0.2154,0.2161,0.2164,0.2166,0.2165,0.2183,0.2178,0.2184,0.2203,0.2233,0.2233,0.2234,0.2264,0.2267,0.227,0,0,0,0,0,0,0.21,0.2117,0.2123,0.2122,0.2145,0.2152,0.2161,0.2175,0.2179,0.2177,0.2178,0.2179,0.2208,0.2202,0.2197,0.222,0.2206,0.2208,0.2226,0.2229,0.2232,0.222,0.2179,0,0,0,0,0,0.2101,0.2105,0.2128,0.213,0.2144,0.2163,0.2176,0.2178,0.2188,0.2189,0.2191,0.2196,0.2214,0.222,0.2226,0.2248,0.2232,0.226,0.2263,0.2265,0.2258,0.2256,0.2258,0.2237,0.2237,0.2237,0,0,0.2093,0.2107,0.2107,0.2128,0.2142,0.2163,0.2166,0.2187,0.22,0.2196,0.2205,0.2216,0.2225,0.2236,0.2248,0.2235,0.2262,0.2266,0.2269,0.226,0.2257,0.2259,0.2261,0.2237,0.2237,0.2237,0,0,0.209,0.2092,0.2103,0.2119,0.2155,0.2171,0.2189,0.2205,0.2206,0.2231,0.2227,0.2245,0.2268,0.2262,0.2271,0.2299,0.2285,0.2307,0.2305,0.2305,0.2306,0.2307,0.2283,0.2282,0.2298,0.2299,0.2299,0,0.2084,0.2087,0.2111,0.2127,0.2135,0.2183,0.2191,0.2212,0.223,0.2228,0.2236,0.2261,0.2278,0.2293,0.2297,0.2307,0.2293,0.2295,0.2308,0.2309,0.231,0.2285,0.2283,0.23,0.23,0.23,0.23,0,0.2083,0.2091,0.2099,0.2132,0.215,0.2161,0.2198,0.2211,0.2235,0.2249,0.227,0.2283,0.229,0.2308,0.2318,0.2331,0.2316,0.2321,0.23,0.2314,0.2287,0.2284,0.2302,0.2302,0.2301,0.2301,0,0,0.2042,0.2089,0.2087,0.2097,0.2141,0.2151,0.2181,0.2207,0.222,0.2248,0.2247,0.2295,0.2302,0.2311,0.2323,0.2326,0.2333,0.2327,0.2326,0.2303,0.2312,0.2274,0.2268,0.2343,0.2343,0.2343,0.2288,0,0.203,0.2048,0.2073,0.2089,0.21,0.2131,0.2155,0.2185,0.2211,0.2223,0.2254,0.2275,0.2307,0.2312,0.2324,0.2337,0.2329,0.2346,0.2301,0.2299,0.2265,0.2265,0.2117,0.2053,0.2285,0.2285,0.2285,0,0.2012,0.2025,0.2035,0.2058,0.2063,0.2087,0.2103,0.2131,0.2173,0.2187,0.2212,0.2239,0.2266,0.2287,0.2304,0.2314,0.2312,0.2316,0.2314,0.2264,0.2257,0.2078,0.204,0.228,0.2281,0.2281,0.2281,0,0.1964,0.1989,0.1992,0.1997,0.2045,0.2047,0.2075,0.2117,0.2128,0.2167,0.2177,0.221,0.2233,0.2243,0.2282,0.2287,0.2288,0.229,0.2243,0.2239,0.2095,0.2079,0.228,0.228,0.2281,0.2281,0.2281,0,0.1933,0.1929,0.1973,0.1973,0.1975,0.2016,0.2023,0.2056,0.2089,0.2108,0.2162,0.2177,0.2229,0.2246,0.226,0.225,0.2271,0.2234,0.2224,0.2102,0.2088,0.2273,0.2273,0.2279,0.2279,0.2279,0.228,0,0.1892,0.1917,0.1923,0.1955,0.1964,0.1968,0.1997,0.1997,0.2051,0.207,0.2084,0.215,0.2183,0.2215,0.2233,0.2221,0.2213,0.22,0.2047,0.2021,0.216,0.2162,0.2115,0.2113,0.2111,0.211,0.2109,0,0.187,0.1881,0.1906,0.19,0.1917,0.1926,0.193,0.1976,0.1983,0.2056,0.2061,0.2109,0.2138,0.2148,0.2134,0.2114,0.2178,0.1953,0.1938,0.2148,0.2143,0.2148,0.2152,0.1749,0.1745,0.1742,0.174,0,0.1841,0.1863,0.1867,0.1857,0.1855,0.1846,0.1862,0.1862,0.1924,0.1945,0.1989,0.2019,0.2052,0.1976,0.1965,0.1941,0.1945,0.1887,0.2134,0.1831,0.1803,0.18,0.1815,0.1711,0.1714,0.1716,0.1718,0.1719,0.1816,0.1808,0.1819,0.179,0.1787,0.1764,0.1733,0.1758,0.1763,0.1788,0.1876,0.1864,0.1875,0.1784,0.1719,0.1662,0.1798,0.1711,0.172,0.1733,0.1717,0.1691,0.1572,0.1574,0.1576,0.1577,0.1579,0,0.1771,0.1758,0.1741,0.1701,0.1657,0.1687,0.1674,0.1631,0.1611,0.1666,0.1689,0.1549,0.1501,0.1506,0.138,0.1367,0.135,0.1305,0.1271,0.1302,0.1328,0.1291,0.1033,0.1031,0.1029,0.1028,0,0,0.1737,0.1693,0.1668,0.157,0.1549,0.1476,0.1454,0.1422,0.143,0.1392,0.1371,0.1475,0.1496,0.1256,0.1215,0.1103,0.1196,0.1061,0.1507,0.1501,0.1525,0.1577,0.1557,0,0,0,0,0]},{"header":{"parameterUnit":"m.s-1","parameterCategory":2,"la1":30.2991,"la2":30.254,"lo1":-89.0895,"lo2":-89.0444,"dy":0.0017,"dx":0.0017,"nx":28,"ny":28,"refTime":"2024-04-05T09:00:00:Z","depth":"2","parameterNumber":3,"parameterNumberName":"V-component_of_CURRENTS"},"data":[0,0,0,0,0,0,0,0,0,0,0,0,0,0,0,0,0,0,0,0,0,0,0,0,0,0,0,0,0,0,0,0,0,0,0,0,0,0,0,0,0,0,0,0,0,0,0,0,0,0,0,0,0,0,0,0,0,0,0.032,0.032,0,0.0291,0.029,0.029,0.0266,0.0265,0.0265,0.0265,0.0192,0.019,0.0188,0,0,0,0,0,0,0,0,0,0,0,0,0,0.0308,0.0309,0.032,0.032,0.0319,0.0291,0.029,0.029,0.0266,0.0265,0.0265,0.0265,0.0192,0.019,0.0188,0,0,0,0,0,0,0,0,0,0,0,0,0,0.0298,0.0309,0.032,0.0305,0.0303,0.0291,0.029,0.029,0.0266,0.0265,0.0265,0.0265,0.0193,0.019,0.0187,0.0174,0,0,0.0179,0.0178,0,0,0,0,0,0,0,0,0.0299,0.0299,0.0307,0.0306,0.0304,0.0283,0.0259,0.0249,0.0266,0.0278,0.0265,0.0265,0.0219,0.0214,0.0208,0.0171,0.0168,0.0179,0.0177,0.0176,0.0175,0,0,0,0,0,0,0,0.03,0.03,0.0307,0.0307,0.0305,0.0284,0.0283,0.0257,0.0248,0.0277,0.0276,0.0275,0.0218,0.021,0.0206,0.0167,0.0179,0.0176,0.0175,0.0174,0.0115,0.0115,0,0,0,0,0,0,0.0309,0.0301,0.0308,0.0306,0.0303,0.0285,0.0283,0.0289,0.0249,0.0244,0.0275,0.0274,0.0215,0.0209,0.0203,0.0192,0.0176,0.0173,0.0172,0.0114,0.0115,0.0115,0,0,0,0,0,0,0.0309,0.031,0.0309,0.0303,0.0302,0.0286,0.0292,0.0288,0.0279,0.0249,0.0242,0.0269,0.0215,0.0207,0.0185,0.0189,0.0172,0.017,0.0114,0.0114,0.0115,0.0166,0,0,0,0,0,0,0.0309,0.0311,0.0315,0.0304,0.0303,0.0312,0.0292,0.0288,0.0279,0.0277,0.0241,0.0234,0.0214,0.0189,0.0182,0.0185,0.0167,0.0114,0.0114,0.0115,0.0164,0.0167,0.0171,0,0,0,0,0,0.0309,0.032,0.0316,0.0316,0.0311,0.0312,0.031,0.0296,0.0279,0.0284,0.0256,0.0235,0.0185,0.0187,0.0179,0.0181,0.0114,0.0114,0.0115,0.0162,0.0167,0.017,0,0,0,0,0,0,0.0316,0.0318,0.0314,0.0324,0.0323,0.0309,0.0311,0.0296,0.0277,0.0272,0.0236,0.0228,0.0209,0.0187,0.019,0.0163,0.0146,0.0145,0.0185,0.0189,0.0192,0.021,0.0165,0,0,0,0,0,0.0321,0.033,0.0328,0.0336,0.0339,0.0323,0.0319,0.0311,0.0294,0.0285,0.026,0.023,0.0204,0.0191,0.0167,0.0152,0.013,0.0147,0.0151,0.0154,0.0162,0.0133,0.0134,0.0115,0.0115,0.0115,0,0,0.0325,0.0328,0.0332,0.0338,0.0335,0.0346,0.032,0.0322,0.0324,0.0279,0.0272,0.024,0.0202,0.0188,0.0178,0.017,0.0147,0.0154,0.0157,0.0164,0.0133,0.0135,0.0137,0.0115,0.0115,0.0115,0,0,0.0347,0.0344,0.0363,0.0367,0.037,0.0361,0.0362,0.0352,0.0342,0.033,0.0297,0.0271,0.0234,0.0212,0.0193,0.0199,0.0165,0.0187,0.022,0.0191,0.0192,0.0193,0.017,0.0168,0.019,0.019,0.019,0,0.0349,0.0377,0.0368,0.0389,0.0395,0.037,0.0391,0.0379,0.036,0.0351,0.0336,0.0278,0.0247,0.0224,0.0228,0.0207,0.0187,0.0209,0.0196,0.0197,0.0197,0.0172,0.017,0.0193,0.0193,0.0192,0.0192,0,0.0392,0.041,0.0422,0.0442,0.0444,0.0458,0.0446,0.0441,0.0418,0.04,0.0373,0.033,0.0297,0.028,0.0256,0.0241,0.0224,0.0204,0.019,0.0202,0.0175,0.0172,0.0196,0.0195,0.0195,0.0194,0,0,0.0405,0.0445,0.0449,0.0468,0.0474,0.0482,0.0485,0.0481,0.0479,0.0448,0.044,0.0392,0.0363,0.034,0.0302,0.0277,0.0259,0.0248,0.0245,0.0231,0.0199,0.0193,0.0189,0.0236,0.0236,0.0235,0.018,0,0.044,0.0496,0.0501,0.0539,0.0565,0.0547,0.0552,0.054,0.0517,0.0502,0.045,0.0426,0.0386,0.037,0.0339,0.0279,0.0253,0.0276,0.0183,0.018,0.0179,0.0185,0.02,0.0153,0.0176,0.0176,0.0175,0,0.0478,0.0514,0.0568,0.0594,0.0602,0.0615,0.0617,0.0618,0.0587,0.0569,0.0535,0.0489,0.0447,0.041,0.0322,0.0339,0.0277,0.0229,0.0225,0.0202,0.0169,0.0142,0.0145,0.0169,0.017,0.017,0.0171,0,0.0499,0.055,0.0596,0.0609,0.0639,0.065,0.0654,0.0638,0.0642,0.0611,0.0608,0.0542,0.0513,0.0432,0.0333,0.0326,0.0235,0.0208,0.0145,0.0143,0.0129,0.0127,0.0147,0.0147,0.0147,0.0147,0.0147,0,0.0531,0.0564,0.0612,0.064,0.0682,0.0684,0.0711,0.0703,0.0697,0.0709,0.0645,0.0639,0.0517,0.0448,0.0352,0.0245,0.0247,0.0156,0.013,0.0147,0.0148,0.014,0.014,0.0145,0.0145,0.0146,0.0146,0,0.0545,0.058,0.0633,0.0681,0.0696,0.0723,0.0755,0.077,0.0763,0.0779,0.0773,0.0709,0.0624,0.0499,0.0365,0.0277,0.017,0.0128,0.0161,0.0141,0.0091,0.0094,0.0052,0.0052,0.0051,0.0051,0.005,0,0.0559,0.0593,0.0664,0.0695,0.072,0.0762,0.0789,0.0801,0.0826,0.0827,0.084,0.0764,0.0724,0.0528,0.0358,0.0192,0.0166,0.0094,0.0082,0.0103,0.0082,0.0086,0.009,0.0079,0.0079,0.0079,0.0079,0,0.0583,0.0608,0.0657,0.0722,0.0765,0.0818,0.0863,0.0899,0.092,0.0943,0.0957,0.0926,0.0741,0.0577,0.0349,0.0234,0.0122,0.0087,0.0095,0.0107,0.0125,0.0105,0.0109,0.0078,0.0078,0.0078,0.0078,0.0078,0.0595,0.0629,0.0689,0.0744,0.0799,0.0868,0.092,0.0976,0.1036,0.1082,0.1049,0.101,0.0816,0.0526,0.0325,0.0111,0.0123,0.0047,0.0048,0.005,0.0069,0.0086,0.0035,0.0035,0.0035,0.0034,0.0034,0,0.061,0.0649,0.0701,0.0777,0.0832,0.0863,0.0962,0.1023,0.1112,0.1145,0.1161,0.0975,0.0785,0.0556,0.0247,0.0067,0.0046,0.0,0.002,0.0022,0.0024,0.0042,0.0001,0.0,-0.0,-0.0001,0,0,0.0622,0.067,0.0695,0.0784,0.0839,0.0934,0.1,0.11,0.1159,0.1203,0.1178,0.1128,0.0852,0.0623,0.0371,0.0189,0.0146,0.0146,0.0195,0.0252,0.0256,0.0074,0.0108,0,0,0,0,0]}],[{"header":{"parameterUnit":"m.s-1","parameterCategory":2,"la1":30.2991,"la2":30.254,"lo1":-89.0895,"lo2":-89.0444,"dy":0.0017,"dx":0.0017,"nx":28,"ny":28,"refTime":"2024-04-05T09:00:00:Z","depth":"4","parameterNumber":2,"parameterNumberName":"U-component_of_CURRENTS"},"data":[0,0,0,0,0,0,0,0,0,0,0,0,0,0,0,0,0,0,0,0,0,0,0,0,0,0,0,0,0,0,0,0,0,0,0,0,0,0,0,0,0,0,0,0,0,0,0,0,0,0,0,0,0,0,0,0,0,0,0.0962,0.0963,0,0.1009,0.101,0.1011,0.1063,0.1064,0.1064,0.1064,0.1099,0.1099,0.11,0,0,0,0,0,0,0,0,0,0,0,0,0,0.0941,0.0942,0.0962,0.0963,0.0963,0.1009,0.101,0.1011,0.1063,0.1064,0.1064,0.1064,0.1098,0.1099,0.11,0,0,0,0,0,0,0,0,0,0,0,0,0,0.097,0.0942,0.0962,0.099,0.0993,0.1008,0.101,0.1011,0.1063,0.1064,0.1064,0.1064,0.1098,0.1099,0.11,0.1098,0,0,0.1103,0.1104,0,0,0,0,0,0,0,0,0.0969,0.0972,0.0986,0.0988,0.0991,0.1026,0.1015,0.1038,0.1063,0.1042,0.1064,0.1065,0.1069,0.1073,0.1088,0.1099,0.1101,0.1103,0.1104,0.1104,0.1104,0,0,0,0,0,0,0,0.0967,0.097,0.0986,0.0986,0.0989,0.1007,0.1013,0.102,0.1057,0.1044,0.1047,0.1043,0.1072,0.1087,0.1089,0.1101,0.1103,0.1104,0.1105,0.1105,0.1213,0.1216,0,0,0,0,0,0,0.0948,0.0968,0.0985,0.0987,0.0975,0.1007,0.1013,0.1019,0.1057,0.1062,0.1043,0.1045,0.1086,0.1088,0.1091,0.1158,0.1104,0.1105,0.1106,0.1211,0.1214,0.1216,0,0,0,0,0,0,0.0948,0.095,0.0983,0.0974,0.0979,0.1006,0.1013,0.1019,0.1059,0.1055,0.1061,0.1077,0.1086,0.1089,0.1129,0.1157,0.1106,0.1106,0.1208,0.1212,0.1215,0.1249,0,0,0,0,0,0,0.0947,0.095,0.0961,0.0973,0.0978,0.1006,0.1012,0.102,0.1052,0.1057,0.1086,0.1088,0.1087,0.1128,0.113,0.1157,0.1107,0.1206,0.121,0.1214,0.1245,0.1253,0.126,0,0,0,0,0,0.0947,0.0949,0.0962,0.0964,0.0989,0.1006,0.1012,0.1036,0.1053,0.1074,0.1103,0.1089,0.1157,0.113,0.1132,0.1161,0.1203,0.1209,0.1214,0.1241,0.1251,0.126,0,0,0,0,0,0,0.095,0.0955,0.0969,0.0976,0.0998,0.1013,0.1034,0.105,0.1092,0.1105,0.111,0.1115,0.1164,0.1163,0.1133,0.121,0.1181,0.1187,0.1201,0.1211,0.1218,0.1215,0.1108,0,0,0,0,0,0.0953,0.0959,0.0972,0.0983,0.0997,0.1024,0.1039,0.1056,0.1082,0.1103,0.1126,0.1155,0.1184,0.1197,0.1222,0.1253,0.1248,0.1279,0.1286,0.1292,0.1296,0.1324,0.1333,0.1233,0.1233,0.1233,0,0,0.0955,0.096,0.0964,0.0985,0.1009,0.1033,0.1037,0.1066,0.1096,0.1097,0.116,0.1183,0.1202,0.1246,0.1268,0.1248,0.1318,0.1299,0.1304,0.1304,0.133,0.134,0.1348,0.1237,0.1236,0.1236,0,0,0.0956,0.0975,0.0983,0.1007,0.1037,0.1052,0.1065,0.1102,0.1134,0.1186,0.1201,0.1241,0.1288,0.1303,0.1316,0.1379,0.1362,0.1398,0.1425,0.1452,0.146,0.1467,0.1462,0.1468,0.1396,0.1396,0.1396,0,0.0965,0.0975,0.099,0.1015,0.1034,0.1064,0.1089,0.1125,0.1173,0.1204,0.1215,0.1306,0.1314,0.1362,0.1388,0.1393,0.14,0.1381,0.1459,0.1466,0.1472,0.1466,0.1472,0.1398,0.1398,0.1398,0.1397,0,0.0971,0.0995,0.1007,0.1046,0.1072,0.1097,0.1138,0.1182,0.1225,0.1261,0.1339,0.1365,0.1417,0.1429,0.1426,0.1481,0.1468,0.1466,0.1427,0.1484,0.1474,0.148,0.1401,0.14,0.14,0.1399,0,0,0.0962,0.0999,0.1013,0.1038,0.109,0.1111,0.1168,0.1222,0.1273,0.1335,0.1398,0.1454,0.1483,0.15,0.1508,0.1525,0.1564,0.1518,0.1518,0.1496,0.1612,0.1501,0.1496,0.1581,0.1582,0.1584,0.1582,0,0.0972,0.0999,0.1024,0.1076,0.1097,0.1147,0.12,0.1259,0.1319,0.1391,0.1436,0.1504,0.1507,0.1538,0.1563,0.1569,0.1584,0.1563,0.1575,0.1575,0.1456,0.1501,0.1589,0.1586,0.1587,0.1588,0.1589,0,0.0979,0.0994,0.1027,0.1089,0.1109,0.1153,0.124,0.1294,0.1391,0.1443,0.1517,0.1559,0.1609,0.1602,0.1646,0.1638,0.1635,0.1628,0.1628,0.1516,0.1475,0.1523,0.1599,0.1598,0.1597,0.1597,0.1596,0,0.0951,0.1007,0.1027,0.105,0.1121,0.1166,0.1221,0.1317,0.1373,0.1483,0.1528,0.1608,0.1647,0.1673,0.1676,0.1672,0.1704,0.1692,0.1586,0.1577,0.1659,0.1652,0.1722,0.1722,0.1722,0.1722,0.1722,0,0.0938,0.097,0.1024,0.1041,0.1103,0.1165,0.1249,0.132,0.1415,0.1479,0.1563,0.1605,0.1672,0.1698,0.1695,0.1654,0.1726,0.1593,0.1575,0.1673,0.1668,0.1662,0.1655,0.1722,0.1722,0.1722,0.1722,0,0.0904,0.0937,0.0976,0.1052,0.109,0.1143,0.1259,0.1313,0.1411,0.1489,0.1523,0.1615,0.1646,0.1681,0.1707,0.1658,0.1637,0.1604,0.1694,0.1681,0.1483,0.1479,0.1479,0.1475,0.1472,0.147,0.1467,0,0.088,0.089,0.0976,0.1017,0.1062,0.1146,0.1205,0.131,0.1358,0.1478,0.1499,0.1567,0.1614,0.1555,0.1605,0.1586,0.1569,0.1539,0.1521,0.1478,0.1462,0.1462,0.1462,0.1462,0.1461,0.1461,0.146,0,0.0838,0.0879,0.0912,0.0988,0.1058,0.1114,0.12,0.1218,0.1329,0.1417,0.1437,0.1447,0.1473,0.1485,0.1479,0.1468,0.1549,0.1505,0.1512,0.1494,0.1458,0.1445,0.1448,0.1449,0.145,0.1451,0.1452,0,0.0823,0.0838,0.0892,0.0957,0.1034,0.1062,0.1111,0.1153,0.1203,0.132,0.1321,0.139,0.1462,0.1423,0.1422,0.1399,0.1374,0.132,0.1335,0.1348,0.1306,0.124,0.1151,0,0,0,0,0,0.0796,0.0809,0.0859,0.0916,0.0982,0.1021,0.11,0.1141,0.123,0.121,0.126,0.1278,0.1274,0.1308,0.1256,0.1363,0.1382,0.1295,0.1329,0.1387,0.14,0.1362,0,0,0,0,0,0,0.0781,0.0824,0.0834,0.0863,0.0889,0.0944,0.0985,0.1043,0.1032,0.1126,0.113,0.1195,0.1212,0.129,0.1231,0.1239,0.123,0.1337,0.1333,0.138,0.1391,0.1402,0.1367,0,0,0,0,0]},{"header":{"parameterUnit":"m.s-1","parameterCategory":2,"la1":30.2991,"la2":30.254,"lo1":-89.0895,"lo2":-89.0444,"dy":0.0017,"dx":0.0017,"nx":28,"ny":28,"refTime":"2024-04-05T09:00:00:Z","depth":"4","parameterNumber":3,"parameterNumberName":"V-component_of_CURRENTS"},"data":[0,0,0,0,0,0,0,0,0,0,0,0,0,0,0,0,0,0,0,0,0,0,0,0,0,0,0,0,0,0,0,0,0,0,0,0,0,0,0,0,0,0,0,0,0,0,0,0,0,0,0,0,0,0,0,0,0,0,0.0364,0.0364,0,0.0364,0.0364,0.0363,0.0346,0.0346,0.0345,0.0345,0.0311,0.031,0.0309,0,0,0,0,0,0,0,0,0,0,0,0,0,0.0322,0.0323,0.0364,0.0364,0.0365,0.0364,0.0364,0.0363,0.0346,0.0345,0.0345,0.0345,0.0311,0.031,0.0309,0,0,0,0,0,0,0,0,0,0,0,0,0,0.033,0.0323,0.0364,0.0359,0.0359,0.0364,0.0364,0.0363,0.0346,0.0345,0.0345,0.0345,0.0311,0.031,0.0309,0.0304,0,0,0.0305,0.0305,0,0,0,0,0,0,0,0,0.0329,0.0331,0.0359,0.0359,0.0359,0.0358,0.0336,0.0343,0.0346,0.0346,0.0345,0.0345,0.0326,0.0323,0.0319,0.0303,0.0301,0.0305,0.0304,0.0304,0.0303,0,0,0,0,0,0,0,0.0329,0.0331,0.036,0.036,0.036,0.0348,0.0348,0.0337,0.0333,0.0346,0.0346,0.0352,0.0325,0.032,0.0318,0.0301,0.0305,0.0304,0.0303,0.0303,0.0264,0.0264,0,0,0,0,0,0,0.0338,0.033,0.036,0.036,0.0348,0.0349,0.0349,0.0355,0.0334,0.0332,0.0352,0.0352,0.0322,0.0319,0.0317,0.0309,0.0304,0.0303,0.0302,0.0265,0.0264,0.0264,0,0,0,0,0,0,0.0337,0.0341,0.036,0.0348,0.035,0.035,0.0357,0.0355,0.0357,0.034,0.0336,0.0357,0.0322,0.0318,0.0308,0.0308,0.0302,0.0301,0.0265,0.0265,0.0264,0.0295,0,0,0,0,0,0,0.0336,0.0341,0.0349,0.0349,0.0352,0.0367,0.0357,0.0356,0.0363,0.0362,0.0343,0.0339,0.0322,0.031,0.0307,0.0306,0.03,0.0265,0.0265,0.0264,0.0295,0.0296,0.0297,0,0,0,0,0,0.0335,0.0349,0.0349,0.0353,0.0363,0.0368,0.0367,0.0364,0.0364,0.0364,0.035,0.034,0.0304,0.0309,0.0305,0.0304,0.0266,0.0265,0.0264,0.0294,0.0296,0.0297,0,0,0,0,0,0,0.0333,0.0349,0.0349,0.0366,0.0369,0.0366,0.0374,0.0371,0.0361,0.0362,0.0341,0.0336,0.0324,0.031,0.0316,0.029,0.0281,0.028,0.0305,0.0306,0.0308,0.0312,0.0299,0,0,0,0,0,0.0339,0.0353,0.036,0.0373,0.0379,0.0378,0.0381,0.0378,0.0372,0.0369,0.0354,0.0336,0.0318,0.031,0.0292,0.0284,0.0265,0.0278,0.0279,0.0281,0.028,0.0249,0.0247,0.0262,0.0262,0.0262,0,0,0.0341,0.0353,0.036,0.0374,0.0378,0.0386,0.0378,0.0388,0.0388,0.0366,0.0361,0.0342,0.0316,0.0302,0.0295,0.0292,0.0267,0.028,0.0281,0.028,0.0248,0.0247,0.0245,0.0262,0.0262,0.0262,0,0,0.0356,0.0366,0.0383,0.0389,0.0402,0.0399,0.0405,0.0405,0.0399,0.0394,0.0373,0.0355,0.0334,0.031,0.0297,0.0294,0.0275,0.029,0.0301,0.0271,0.027,0.0269,0.025,0.0246,0.0291,0.0291,0.0291,0,0.0358,0.0383,0.0387,0.0404,0.0413,0.0407,0.0422,0.0414,0.0406,0.04,0.0396,0.0355,0.0335,0.031,0.0307,0.0298,0.0282,0.0301,0.0274,0.0272,0.027,0.0251,0.0247,0.0293,0.0292,0.0292,0.0292,0,0.0384,0.0403,0.0415,0.0433,0.0438,0.0452,0.0446,0.0442,0.0436,0.0424,0.0402,0.0372,0.0348,0.0336,0.0322,0.0297,0.0292,0.028,0.0273,0.0271,0.025,0.0246,0.0295,0.0294,0.0294,0.0293,0,0,0.0389,0.0427,0.0432,0.0447,0.0457,0.0464,0.0463,0.0458,0.0459,0.0436,0.0428,0.0389,0.0373,0.0356,0.0333,0.0305,0.028,0.0292,0.0289,0.0279,0.0223,0.0218,0.0213,0.0266,0.0265,0.0265,0.0217,0,0.0409,0.0451,0.0459,0.0486,0.0505,0.0498,0.0498,0.0488,0.0475,0.0463,0.0423,0.0408,0.0381,0.0374,0.034,0.0297,0.0268,0.0294,0.0221,0.0219,0.022,0.0207,0.0262,0.0214,0.0212,0.0212,0.0211,0,0.0431,0.0459,0.0498,0.052,0.0528,0.0538,0.054,0.0539,0.0513,0.0503,0.0474,0.0444,0.0402,0.0382,0.0301,0.0322,0.0274,0.0237,0.0234,0.0215,0.0205,0.0213,0.0202,0.0203,0.0203,0.0204,0.0205,0,0.0441,0.048,0.0515,0.0525,0.055,0.0561,0.0567,0.0553,0.0556,0.0532,0.0531,0.0471,0.0452,0.038,0.0302,0.0303,0.0212,0.0203,0.0151,0.0151,0.0156,0.0158,0.0138,0.0138,0.0138,0.0138,0.0138,0,0.0458,0.0485,0.0528,0.0549,0.0583,0.0586,0.0611,0.0605,0.06,0.0606,0.0558,0.0547,0.045,0.0386,0.031,0.0218,0.0215,0.0149,0.0134,0.0171,0.0175,0.0153,0.0156,0.0137,0.0137,0.0137,0.0138,0,0.0465,0.0495,0.0537,0.0578,0.0594,0.0616,0.065,0.066,0.0657,0.0664,0.0661,0.0602,0.0525,0.0422,0.0306,0.0237,0.0145,0.011,0.0165,0.0155,0.0103,0.0108,0.0052,0.0051,0.0051,0.005,0.005,0,0.0471,0.0499,0.0562,0.0588,0.0613,0.0651,0.0676,0.0689,0.0704,0.0698,0.07,0.0634,0.0583,0.0418,0.0309,0.0159,0.0133,0.0083,0.0082,0.0101,0.0092,0.0098,0.0103,0.0049,0.0049,0.0049,0.0048,0,0.0482,0.0511,0.0547,0.0605,0.0644,0.0688,0.0727,0.0745,0.0758,0.0758,0.0727,0.0641,0.0552,0.0422,0.0303,0.0194,0.0115,0.0077,0.0078,0.0076,0.0097,0.009,0.0095,0.0047,0.0047,0.0047,0.0047,0,0.0488,0.0511,0.0561,0.0607,0.066,0.0708,0.0732,0.0752,0.0768,0.0763,0.0753,0.0657,0.0602,0.044,0.0332,0.0224,0.0194,0.0151,0.0147,0.0147,0.0185,0.0227,0.02,0,0,0,0,0,0.049,0.0513,0.0555,0.0608,0.0663,0.0697,0.0755,0.0774,0.0798,0.0778,0.0766,0.0683,0.0524,0.0457,0.0348,0.0319,0.0174,0.0186,0.0121,0.0036,0.0038,0.0065,0,0,0,0,0,0,0.0489,0.053,0.0548,0.0602,0.0638,0.0699,0.0742,0.0761,0.0753,0.0759,0.0678,0.0642,0.0491,0.0581,0.0339,0.0308,0.0249,0.0116,0.0113,0.0035,0.0037,0.0039,0.0067,0,0,0,0,0]}]]